Regional Weather Roundup
Issued by NWS Raleigh/Durham, NC

Home | Current Version | Previous Version | Text Only | Print | Product List | Glossary On
Versions: 1 2 3 4 5 6 7 8 9 10 11 12 13 14 15 16 17 18 19 20 21 22 23 24 25 26 27 28 29 30 31 32 33 34 35 36 37 38 39 40 41 42 43 44 45 46 47 48 49 50
000
ASUS42 KRAH 110510
RWRRAH
NORTH CAROLINA WEATHER ROUNDUP
NATIONAL WEATHER SERVICE RALEIGH NC
1200 AM EST THU FEB 11 2016

NOTE: "FAIR" INDICATES FEW OR NO CLOUDS BELOW 12,000 FEET WITH NO
SIGNIFICANT WEATHER AND/OR OBSTRUCTIONS TO VISIBILITY.

NCZ001-053-055-056-065-067-110600-
WESTERN NORTH CAROLINA

CITY           SKY/WX    TMP DP  RH WIND       PRES   REMARKS
ASHEVILLE      CLEAR     21   1  41 N14       30.02S WCI   8
JEFFERSON      PTCLDY    13  -2  49 W28G44    29.84F WCI  -7
MORGANTON      CLEAR     24   5  45 CALM      30.07S
HICKORY        CLEAR     23   3  42 W7        30.03S WCI  15
RUTHERFORDTON  CLEAR     25   3  38 W7        30.06S WCI  17
MOUNT AIRY     CLEAR     22   2  42 NW6       30.06R WCI  15
BOONE          CLEAR     13   2  63 W24G39    29.89R WCI  -7
$$

NCZ021-022-025-041-071-084-088-110600-
CENTRAL NORTH CAROLINA

CITY           SKY/WX    TMP DP  RH WIND       PRES   REMARKS
CHARLOTTE      PTCLDY    24   7  48 W3        30.09R
GREENSBORO     PTCLDY    23   5  46 NW8       30.04R WCI  14
WINSTON-SALEM  CLEAR     23   3  42 NW8       30.06R WCI  14
RALEIGH-DURHAM MOCLDY    27   7  42 NW6       30.06R WCI  20
FORT BRAGG     CLEAR     26   9  47 W7        30.07S WCI  19
FAYETTEVILLE   CLEAR     29  10  45 NW7       30.08R WCI  22
BURLINGTON     CLEAR     24   7  48 NW9       30.06R WCI  14
LAURINBURG     PTCLDY    28  11  48 N3        30.10S
$$

NCZ011-015-027-028-043-044-047-080-103-110600-
NORTHEASTERN NORTH CAROLINA

CITY           SKY/WX    TMP DP  RH WIND       PRES   REMARKS
ROCKY MT-WILSO CLEAR     28   9  44 W10       30.05R WCI  19
GREENVILLE     CLEAR     30  10  43 NW6       30.06S WCI  24
WASHINGTON     CLEAR     30   9  42 W8G16     30.04R WCI  22
ELIZABETH CITY PTCLDY    28  10  46 W18G32    30.00R WCI  15
MANTEO         CLOUDY    33  17  51 NW20G25   29.99R WCI  21
CAPE HATTERAS  PTCLDY    37  19  48 NW18G36   29.99R WCI  27
$$

NCZ078-087-090-091-093-098-101-110600-
SOUTHEASTERN NORTH CAROLINA

CITY           SKY/WX    TMP DP  RH WIND       PRES   REMARKS
LUMBERTON      PTCLDY    30  16  56 NW5       30.10R WCI  25
GOLDSBORO      CLEAR     28   9  43 W7        30.06R WCI  21
KINSTON        CLEAR     30  10  43 W7        30.07R WCI  23
KENANSVILLE    CLEAR     29  14  53 CALM      30.09R
NEW BERN       CLEAR     31  14  49 W7        30.07R WCI  24
CHERRY POINT   CLEAR     31  17  56 W10       30.06R WCI  22
BEAUFORT       CLEAR     33  17  51 W13       30.06R WCI  24
JACKSONVILLE   NOT AVBL
WILMINGTON     CLEAR     33  17  51 SW13      30.10R WCI  24
$$




USA.gov is the U.S. government's official web portal to all federal, state and local government web resources and services.